Location: ??
(35.5052°N, 139.7262°E)
Time: 18:28:43
(UTC+00:00)

Cosmos 921 Rocket - Pass Details

Date: 20 June 2021
Orbit: 572 x 632 km, 75.8° (Epoch: 30 July)

Event Time Altitude Azimuth Distance (km) Brightness Sun altitude
Exits shadow 16:03:41 43° 5° (N) 816 4.0 -28.0°
Drops below altitude 10° 16:06:34 10° 13° (NNE) 1,885 6.5 -27.8°
Sets 16:08:46 0° 14° (NNE) 2,784 7.7 -27.6°
